EST,Max TemperatureF,Mean TemperatureF,Min TemperatureF,Max Dew PointF,MeanDew PointF,Min DewpointF,Max Humidity, Mean Humidity, Min Humidity, Max Sea Level PressureIn, Mean Sea Level PressureIn, Min Sea Level PressureIn, Max VisibilityMiles, Mean VisibilityMiles, Min VisibilityMiles, Max Wind SpeedMPH, Mean Wind SpeedMPH, Max Gust SpeedMPH,PrecipitationIn, CloudCover, Events, WindDirDegrees
2011-11-1,57,44,30,41,34,30,100,82,44,30.31,30.26,30.23,10,6,2,14,5,,0.00,0,,170
2011-11-2,64,52,39,39,35,33,77,57,34,30.30,30.21,30.11,10,8,3,15,9,21,0.00,0,,187
2011-11-3,57,50,44,47,40,36,93,69,49,30.08,30.01,29.91,10,6,3,18,9,25,0.00,3,Rain,144
2011-11-4,54,42,30,44,33,27,88,67,37,30.34,30.21,30.04,10,10,10,21,14,26,0.00,2,,35
2011-11-5,57,42,28,29,24,19,85,58,24,30.39,30.31,30.25,10,10,10,9,6,,0.00,0,,127
2011-11-6,60,48,36,35,30,23,64,52,36,30.35,30.28,30.23,10,10,10,18,11,25,0.00,0,,182
2011-11-7,62,54,46,49,42,35,86,68,56,30.33,30.27,30.24,10,10,10,12,9,,0.00,7,,180
2011-11-8,68,58,48,49,46,43,86,69,48,30.23,30.15,30.05,10,10,7,17,9,,0.00,1,,181
2011-11-9,60,50,39,55,42,30,94,75,61,30.03,29.91,29.76,10,10,2,28,13,40,0.16,6,Rain,215
2011-11-10,45,38,30,33,28,22,83,69,42,30.04,29.99,29.94,10,10,10,17,12,24,0.00,4,,259
2011-11-11,41,36,30,31,27,23,92,73,49,30.06,30.00,29.93,10,9,4,16,11,23,0.00,4,Snow,251
2011-11-12,59,47,35,34,31,25,76,52,39,30.00,29.95,29.90,10,10,10,22,14,31,0.00,0,,204
2011-11-13,62,56,50,53,41,30,81,57,43,29.90,29.77,29.65,10,10,9,30,21,39,0.02,5,Rain,200
2011-11-14,68,62,55,59,55,53,100,90,70,29.77,29.71,29.58,10,6,1,26,12,38,1.67,8,Rain,228
2011-11-15,55,52,50,54,50,47,100,91,82,29.91,29.85,29.75,10,10,6,15,8,20,0.00,6,,207
2011-11-16,52,44,34,52,42,25,100,83,56,30.12,29.92,29.84,10,7,3,14,6,,0.00,5,,303
2011-11-17,37,32,27,28,20,15,82,60,41,30.33,30.18,30.10,10,10,10,24,8,32,0.00,2,,276
2011-11-18,45,33,21,21,18,16,82,54,31,30.41,30.29,30.15,10,10,10,20,11,30,0.00,0,,193
2011-11-19,57,44,36,43,32,20,68,58,45,30.19,30.11,29.98,10,10,10,23,16,36,0.00,5,,192
2011-11-20,57,50,42,53,46,37,84,77,67,30.25,30.14,29.99,10,9,6,20,14,26,0.00,8,Rain,298
2011-11-21,45,42,39,40,38,36,93,85,80,30.32,30.26,30.20,10,9,5,13,9,,0.01,8,Rain,54
2011-11-22,59,50,41,56,45,37,100,91,79,30.22,29.91,29.60,10,7,1,24,11,33,0.67,8,Rain,116
2011-11-23,48,42,37,41,37,34,97,86,66,30.27,30.06,29.69,10,7,2,20,14,31,0.01,5,Rain,305
2011-11-24,46,42,37,41,38,35,100,90,81,30.35,30.28,30.24,10,5,1,17,11,22,0.00,7,,224
2011-11-25,57,46,36,41,37,33,97,71,49,30.24,30.16,30.10,10,9,5,21,12,26,0.00,0,,199
2011-11-26,61,52,44,46,40,33,69,63,56,30.15,30.07,29.94,10,10,10,20,12,28,0.00,1,,188
2011-11-27,55,50,44,54,49,43,100,93,64,30.00,29.90,29.82,10,7,2,22,14,31,0.70,8,Rain,244
2011-11-28,45,42,39,45,42,38,100,95,87,30.06,29.95,29.81,10,8,4,17,12,21,0.46,8,Rain,41
2011-11-29,48,41,34,48,42,32,100,95,87,29.78,29.63,29.57,10,5,1,23,14,36,0.64,8,Rain-Snow,22
2011-11-30,39,34,28,32,29,26,96,87,65,30.22,29.88,29.62,10,7,2,21,13,28,0.02,5,Snow,296